Time,TemperatureF,DewpointF,PressureIn,WindDirection,WindDirectionDegrees,WindSpeedMPH,WindSpeedGustMPH,Humidity,HourlyPrecipIn,Conditions,Clouds,dailyrainin,SolarRadiationWatts/m^2,SoftwareType,DateUTC
2013-07-11 00:00:00,74.0,69.9,29.83,WSW,252,0.0,0.0,87,0.00,,,0.00,0,Wunderground v.1.15,2013-07-11 04:00:00,
2013-07-11 00:10:00,73.4,70.0,29.82,WSW,252,0.0,0.0,89,0.00,,,0.00,0,Wunderground v.1.15,2013-07-11 04:10:00,
2013-07-11 00:20:00,73.4,70.0,29.82,WSW,252,0.0,0.0,89,0.00,,,0.00,0,Wunderground v.1.15,2013-07-11 04:20:00,
2013-07-11 00:30:00,73.2,69.8,29.81,WSW,252,0.0,0.0,89,0.00,,,0.00,0,Wunderground v.1.15,2013-07-11 04:30:00,
2013-07-11 00:40:00,73.1,69.7,29.81,WSW,252,0.0,0.0,89,0.00,,,0.00,0,Wunderground v.1.15,2013-07-11 04:40:00,
2013-07-11 00:50:00,72.9,69.8,29.81,WSW,252,0.0,0.0,90,0.00,,,0.00,0,Wunderground v.1.15,2013-07-11 04:50:00,
2013-07-11 01:00:00,73.0,69.9,29.81,WSW,252,0.0,0.0,90,0.00,,,0.00,0,Wunderground v.1.15,2013-07-11 05:00:00,
2013-07-11 01:10:00,73.2,70.1,29.82,WSW,252,0.0,0.0,90,0.00,,,0.00,0,Wunderground v.1.15,2013-07-11 05:10:00,
2013-07-11 01:20:00,73.4,70.0,29.82,WSW,253,0.0,0.0,89,0.00,,,0.00,0,Wunderground v.1.15,2013-07-11 05:20:00,
2013-07-11 01:30:00,73.3,69.9,29.82,WSW,253,0.0,0.0,89,0.00,,,0.00,0,Wunderground v.1.15,2013-07-11 05:30:00,
2013-07-11 01:40:00,73.1,69.7,29.83,WSW,253,0.0,0.0,89,0.00,,,0.00,0,Wunderground v.1.15,2013-07-11 05:40:00,
2013-07-11 01:50:00,73.0,69.2,29.83,WSW,253,0.0,0.0,88,0.00,,,0.00,0,Wunderground v.1.15,2013-07-11 05:50:00,
2013-07-11 01:59:00,72.9,69.1,29.83,WSW,253,0.0,0.0,88,0.00,,,0.00,0,Wunderground v.1.15,2013-07-11 05:59:00,
2013-07-11 02:10:00,72.8,68.7,29.82,WSW,253,0.0,0.0,87,0.00,,,0.00,0,Wunderground v.1.15,2013-07-11 06:10:00,
2013-07-11 02:20:00,72.3,68.5,29.83,WSW,253,0.0,0.0,88,0.00,,,0.00,0,Wunderground v.1.15,2013-07-11 06:20:00,
2013-07-11 02:30:00,72.2,68.4,29.83,WSW,253,0.0,0.0,88,0.00,,,0.00,0,Wunderground v.1.15,2013-07-11 06:30:00,
2013-07-11 02:40:00,72.0,68.9,29.83,WSW,253,0.0,0.0,90,0.00,,,0.00,0,Wunderground v.1.15,2013-07-11 06:40:00,
2013-07-11 02:50:00,71.7,68.6,29.83,WSW,253,0.0,0.0,90,0.00,,,0.00,0,Wunderground v.1.15,2013-07-11 06:50:00,
2013-07-11 03:00:00,71.8,68.7,29.83,WSW,253,0.0,0.0,90,0.00,,,0.00,0,Wunderground v.1.15,2013-07-11 07:00:00,
2013-07-11 03:10:00,71.7,68.6,29.83,WSW,253,0.0,0.0,90,0.00,,,0.00,0,Wunderground v.1.15,2013-07-11 07:10:00,
2013-07-11 03:20:00,71.7,68.9,29.83,WSW,253,0.0,0.0,91,0.00,,,0.00,0,Wunderground v.1.15,2013-07-11 07:20:00,
2013-07-11 03:30:00,71.5,68.7,29.82,WSW,253,0.0,0.0,91,0.00,,,0.00,0,Wunderground v.1.15,2013-07-11 07:30:00,
2013-07-11 03:40:00,71.3,68.9,29.83,WSW,253,0.0,0.0,92,0.00,,,0.00,0,Wunderground v.1.15,2013-07-11 07:40:00,
2013-07-11 03:50:00,71.2,68.8,29.83,WSW,253,0.0,0.0,92,0.00,,,0.00,0,Wunderground v.1.15,2013-07-11 07:50:00,
2013-07-11 04:00:00,71.3,68.9,29.83,WSW,253,0.0,0.0,92,0.00,,,0.00,0,Wunderground v.1.15,2013-07-11 08:00:00,
2013-07-11 04:10:00,71.2,68.8,29.83,WSW,253,0.0,0.0,92,0.00,,,0.00,0,Wunderground v.1.15,2013-07-11 08:10:00,
2013-07-11 04:20:00,71.1,68.7,29.82,WSW,253,0.0,0.0,92,0.00,,,0.00,0,Wunderground v.1.15,2013-07-11 08:20:00,
2013-07-11 04:30:00,71.0,68.9,29.83,WSW,253,0.0,0.0,93,0.00,,,0.00,0,Wunderground v.1.15,2013-07-11 08:30:00,
2013-07-11 04:40:00,71.0,68.9,29.83,WSW,253,0.0,0.0,93,0.00,,,0.00,0,Wunderground v.1.15,2013-07-11 08:40:00,
2013-07-11 04:50:00,70.8,68.7,29.83,WSW,253,0.0,0.0,93,0.00,,,0.00,0,Wunderground v.1.15,2013-07-11 08:50:00,
2013-07-11 05:00:00,70.7,68.6,29.84,WSW,253,0.0,0.0,93,0.00,,,0.00,0,Wunderground v.1.15,2013-07-11 09:00:00,
2013-07-11 05:10:00,70.4,68.3,29.84,WSW,253,0.0,0.0,93,0.00,,,0.00,0,Wunderground v.1.15,2013-07-11 09:10:00,
2013-07-11 05:20:00,70.3,68.5,29.84,WSW,253,0.0,0.0,94,0.00,,,0.00,0,Wunderground v.1.15,2013-07-11 09:20:00,
2013-07-11 05:30:00,70.3,68.5,29.84,WSW,253,0.0,0.0,94,0.00,,,0.00,0,Wunderground v.1.15,2013-07-11 09:30:00,
2013-07-11 05:40:00,70.3,68.5,29.84,WSW,253,0.0,0.0,94,0.00,,,0.00,0,Wunderground v.1.15,2013-07-11 09:40:00,
2013-07-11 05:50:00,70.2,68.4,29.84,WSW,253,0.0,0.0,94,0.00,,,0.00,0,Wunderground v.1.15,2013-07-11 09:50:00,
2013-07-11 06:00:00,70.2,68.4,29.84,WSW,253,0.0,0.0,94,0.00,,,0.00,0,Wunderground v.1.15,2013-07-11 10:00:00,
2013-07-11 06:10:00,70.1,68.3,29.85,WSW,253,0.0,0.0,94,0.00,,,0.00,0,Wunderground v.1.15,2013-07-11 10:10:00,
2013-07-11 06:20:00,70.1,68.3,29.86,WSW,253,0.0,0.0,94,0.00,,,0.00,0,Wunderground v.1.15,2013-07-11 10:20:00,
2013-07-11 06:30:00,70.0,68.2,29.86,WSW,253,0.0,0.0,94,0.00,,,0.00,9,Wunderground v.1.15,2013-07-11 10:30:00,
2013-07-11 06:40:00,70.0,68.2,29.86,WSW,253,0.0,0.0,94,0.00,,,0.00,14,Wunderground v.1.15,2013-07-11 10:40:00,
2013-07-11 06:50:00,70.1,68.3,29.87,WSW,253,0.0,0.0,94,0.00,,,0.00,19,Wunderground v.1.15,2013-07-11 10:50:00,
2013-07-11 07:00:00,70.1,68.3,29.87,WSW,253,0.0,0.0,94,0.00,,,0.00,28,Wunderground v.1.15,2013-07-11 11:00:00,
2013-07-11 07:10:00,70.2,68.4,29.87,WSW,253,0.0,0.0,94,0.00,,,0.00,37,Wunderground v.1.15,2013-07-11 11:10:00,
2013-07-11 07:20:00,70.1,68.3,29.88,WSW,253,0.0,0.0,94,0.00,,,0.00,49,Wunderground v.1.15,2013-07-11 11:20:00,
2013-07-11 07:30:00,70.3,68.2,29.88,WSW,253,0.0,0.0,93,0.00,,,0.00,67,Wunderground v.1.15,2013-07-11 11:30:00,
2013-07-11 07:40:00,71.4,68.0,29.89,West,263,0.0,0.0,89,0.00,,,0.00,88,Wunderground v.1.15,2013-07-11 11:40:00,
2013-07-11 07:50:00,72.6,67.5,29.89,West,263,0.0,0.0,84,0.00,,,0.00,86,Wunderground v.1.15,2013-07-11 11:50:00,
2013-07-11 08:00:00,73.1,67.3,29.89,West,265,0.0,0.0,82,0.00,,,0.00,67,Wunderground v.1.15,2013-07-11 12:00:00,
2013-07-11 08:10:00,73.1,67.3,29.89,West,265,0.0,0.0,82,0.00,,,0.00,98,Wunderground v.1.15,2013-07-11 12:10:00,
2013-07-11 08:20:00,73.3,67.5,29.90,West,262,0.0,0.0,82,0.00,,,0.00,79,Wunderground v.1.15,2013-07-11 12:20:00,
2013-07-11 08:30:00,73.4,67.2,29.90,West,265,0.0,0.0,81,0.00,,,0.00,105,Wunderground v.1.15,2013-07-11 12:30:00,
2013-07-11 09:20:00,73.8,69.0,29.89,WNW,293,0.0,0.0,85,0.00,,,0.00,207,Wunderground v.1.15,2013-07-11 13:20:00,
2013-07-11 09:30:00,73.7,68.6,29.90,North,355,0.0,0.0,84,0.00,,,0.00,197,Wunderground v.1.15,2013-07-11 13:30:00,
2013-07-11 09:40:00,74.0,68.9,29.90,North,360,0.0,0.0,84,0.00,,,0.00,214,Wunderground v.1.15,2013-07-11 13:40:00,
2013-07-11 09:50:00,74.5,68.3,29.89,WNW,302,0.0,0.0,81,0.00,,,0.00,202,Wunderground v.1.15,2013-07-11 13:50:00,
2013-07-11 10:00:00,75.2,68.2,29.89,NNW,343,1.0,1.0,79,0.00,,,0.00,272,Wunderground v.1.15,2013-07-11 14:00:00,
2013-07-11 10:10:00,76.7,70.1,29.89,NNW,346,1.0,1.0,80,0.00,,,0.00,671,Wunderground v.1.15,2013-07-11 14:10:00,
2013-07-11 10:40:00,78.7,69.3,29.90,NNW,338,2.0,2.0,73,0.00,,,0.00,246,Wunderground v.1.15,2013-07-11 14:40:00,
2013-07-11 10:50:00,77.9,68.9,29.90,North,360,2.0,2.0,74,0.00,,,0.00,499,Wunderground v.1.15,2013-07-11 14:50:00,
2013-07-11 11:00:00,78.2,68.8,29.90,North,350,2.0,2.0,73,0.00,,,0.00,492,Wunderground v.1.15,2013-07-11 15:00:00,
2013-07-11 11:20:00,79.7,69.9,29.90,NNW,331,3.0,3.0,72,0.00,,,0.00,837,Wunderground v.1.15,2013-07-11 15:20:00,
2013-07-11 11:40:00,79.6,69.8,29.90,North,5,2.0,3.0,72,0.00,,,0.00,443,Wunderground v.1.15,2013-07-11 15:40:00,
2013-07-11 11:50:00,79.9,69.2,29.90,NNW,343,1.0,1.0,70,0.00,,,0.00,287,Wunderground v.1.15,2013-07-11 15:50:00,
2013-07-11 12:00:00,79.7,70.7,29.90,North,5,2.0,3.0,74,0.00,,,0.00,981,Wunderground v.1.15,2013-07-11 16:00:00,
2013-07-11 12:10:00,79.9,69.7,29.90,NNE,26,2.0,6.0,71,0.00,,,0.00,278,Wunderground v.1.15,2013-07-11 16:10:00,
2013-07-11 12:20:00,80.7,70.0,29.89,North,355,1.0,1.0,70,0.00,,,0.00,385,Wunderground v.1.15,2013-07-11 16:20:00,
2013-07-11 12:50:00,81.1,69.5,29.90,North,355,3.0,3.0,68,0.00,,,0.00,264,Wunderground v.1.15,2013-07-11 16:50:00,
2013-07-11 13:00:00,82.3,72.0,29.89,North,5,1.0,1.0,71,0.00,,,0.00,1030,Wunderground v.1.15,2013-07-11 17:00:00,
2013-07-11 13:10:00,82.8,68.4,29.89,North,355,2.0,2.0,62,0.00,,,0.00,338,Wunderground v.1.15,2013-07-11 17:10:00,
2013-07-11 13:30:00,81.3,70.2,29.89,NNW,346,2.0,5.0,69,0.00,,,0.00,348,Wunderground v.1.15,2013-07-11 17:30:00,
2013-07-11 13:40:00,80.6,69.9,29.89,North,11,1.0,1.0,70,0.00,,,0.00,332,Wunderground v.1.15,2013-07-11 17:40:00,
2013-07-11 13:59:00,83.7,69.8,29.88,NNW,331,2.0,3.0,63,0.00,,,0.00,288,Wunderground v.1.15,2013-07-11 17:59:00,
2013-07-11 14:10:00,81.4,69.4,29.88,NNW,344,1.0,6.0,67,0.00,,,0.00,278,Wunderground v.1.15,2013-07-11 18:10:00,
2013-07-11 14:20:00,83.1,68.3,29.88,NW,305,2.0,2.0,61,0.00,,,0.00,914,Wunderground v.1.15,2013-07-11 18:20:00,
2013-07-11 14:30:00,83.6,69.7,29.88,NNE,18,1.0,3.0,63,0.00,,,0.00,726,Wunderground v.1.15,2013-07-11 18:30:00,
2013-07-11 14:40:00,82.7,68.4,29.88,North,9,2.0,2.0,62,0.00,,,0.00,332,Wunderground v.1.15,2013-07-11 18:40:00,
2013-07-11 14:50:00,82.2,67.9,29.87,West,271,1.0,1.0,62,0.00,,,0.00,323,Wunderground v.1.15,2013-07-11 18:50:00,
2013-07-11 15:00:00,81.6,68.7,29.87,North,355,1.0,1.0,65,0.00,,,0.00,366,Wunderground v.1.15,2013-07-11 19:00:00,
2013-07-11 15:10:00,82.9,68.1,29.87,WNW,282,0.0,0.0,61,0.00,,,0.00,346,Wunderground v.1.15,2013-07-11 19:10:00,
2013-07-11 15:20:00,82.4,68.5,29.87,WNW,285,1.0,1.0,63,0.00,,,0.00,397,Wunderground v.1.15,2013-07-11 19:20:00,
2013-07-11 15:30:00,82.2,68.3,29.87,NNW,348,1.0,1.0,63,0.00,,,0.00,385,Wunderground v.1.15,2013-07-11 19:30:00,
2013-07-11 15:50:00,83.6,69.7,29.86,NNW,344,1.0,1.0,63,0.00,,,0.00,891,Wunderground v.1.15,2013-07-11 19:50:00,
2013-07-11 16:10:00,82.4,69.4,29.86,North,355,1.0,1.0,65,0.00,,,0.00,360,Wunderground v.1.15,2013-07-11 20:10:00,
2013-07-11 16:30:00,82.1,70.1,29.86,North,355,0.0,0.0,67,0.00,,,0.00,279,Wunderground v.1.15,2013-07-11 20:30:00,
2013-07-11 16:40:00,81.4,70.7,29.86,North,355,0.0,0.0,70,0.00,,,0.00,237,Wunderground v.1.15,2013-07-11 20:40:00,
2013-07-11 16:50:00,81.1,70.0,29.85,North,355,0.0,0.0,69,0.00,,,0.00,253,Wunderground v.1.15,2013-07-11 20:50:00,
2013-07-11 17:00:00,81.7,69.2,29.86,North,355,0.0,0.0,66,0.00,,,0.00,236,Wunderground v.1.15,2013-07-11 21:00:00,
2013-07-11 17:10:00,82.0,69.5,29.86,North,355,0.0,0.0,66,0.00,,,0.00,239,Wunderground v.1.15,2013-07-11 21:10:00,
2013-07-11 17:30:00,81.6,69.6,29.86,North,355,0.0,0.0,67,0.00,,,0.00,206,Wunderground v.1.15,2013-07-11 21:30:00,
2013-07-11 17:40:00,81.3,69.3,29.86,North,355,0.0,0.0,67,0.00,,,0.00,188,Wunderground v.1.15,2013-07-11 21:40:00,
2013-07-11 17:50:00,81.4,70.2,29.85,NNW,328,0.0,0.0,69,0.00,,,0.00,179,Wunderground v.1.15,2013-07-11 21:50:00,
2013-07-11 18:00:00,81.2,70.1,29.85,NNW,331,0.0,0.0,69,0.00,,,0.00,193,Wunderground v.1.15,2013-07-11 22:00:00,
2013-07-11 18:10:00,81.2,71.3,29.85,NNW,331,0.0,0.0,72,0.00,,,0.00,155,Wunderground v.1.15,2013-07-11 22:10:00,
2013-07-11 18:20:00,80.6,71.1,29.85,NNW,331,0.0,0.0,73,0.00,,,0.00,148,Wunderground v.1.15,2013-07-11 22:20:00,
2013-07-11 18:50:00,79.3,72.2,29.86,NNW,331,0.0,0.0,79,0.00,,,0.00,95,Wunderground v.1.15,2013-07-11 22:50:00,
2013-07-11 19:00:00,78.7,71.6,29.86,NNW,331,0.0,0.0,79,0.00,,,0.00,90,Wunderground v.1.15,2013-07-11 23:00:00,
2013-07-11 19:10:00,78.8,71.7,29.87,NNW,331,0.0,0.0,79,0.00,,,0.00,81,Wunderground v.1.15,2013-07-11 23:10:00,
2013-07-11 19:20:00,78.9,71.1,29.87,NNW,331,0.0,0.0,77,0.00,,,0.00,65,Wunderground v.1.15,2013-07-11 23:20:00,
2013-07-11 19:30:00,79.2,71.4,29.88,NNW,331,0.0,0.0,77,0.00,,,0.00,30,Wunderground v.1.15,2013-07-11 23:30:00,
2013-07-11 19:40:00,78.6,72.6,29.88,NNW,331,0.0,0.0,82,0.00,,,0.00,19,Wunderground v.1.15,2013-07-11 23:40:00,
2013-07-11 19:50:00,77.7,72.5,29.87,NNW,331,0.0,0.0,84,0.00,,,0.00,9,Wunderground v.1.15,2013-07-11 23:50:00,
2013-07-11 20:00:00,77.3,72.1,29.88,NNW,331,0.0,0.0,84,0.00,,,0.00,11,Wunderground v.1.15,2013-07-12 00:00:00,
2013-07-11 20:10:00,77.1,72.2,29.87,NNW,331,0.0,0.0,85,0.00,,,0.00,16,Wunderground v.1.15,2013-07-12 00:10:00,
2013-07-11 20:20:00,76.8,70.5,29.87,North,5,0.0,0.0,81,0.00,,,0.00,12,Wunderground v.1.15,2013-07-12 00:20:00,
2013-07-11 20:30:00,77.0,70.0,29.87,North,5,0.0,0.0,79,0.00,,,0.00,5,Wunderground v.1.15,2013-07-12 00:30:00,
2013-07-11 20:40:00,76.7,69.7,29.87,North,11,0.0,0.0,79,0.00,,,0.00,0,Wunderground v.1.15,2013-07-12 00:40:00,
2013-07-11 20:50:00,76.4,69.8,29.87,North,11,0.0,0.0,80,0.00,,,0.00,0,Wunderground v.1.15,2013-07-12 00:50:00,
2013-07-11 21:00:00,76.2,69.9,29.87,North,11,0.0,0.0,81,0.00,,,0.00,0,Wunderground v.1.15,2013-07-12 01:00:00,
2013-07-11 21:10:00,75.7,69.5,29.86,North,11,0.0,0.0,81,0.00,,,0.00,0,Wunderground v.1.15,2013-07-12 01:10:00,
2013-07-11 21:30:00,75.5,68.5,29.88,North,11,0.0,0.0,79,0.00,,,0.00,0,Wunderground v.1.15,2013-07-12 01:30:00,
2013-07-11 21:40:00,75.0,68.4,29.88,North,11,0.0,0.0,80,0.00,,,0.00,0,Wunderground v.1.15,2013-07-12 01:40:00,
2013-07-11 21:50:00,75.0,68.0,29.88,North,11,0.0,0.0,79,0.00,,,0.00,0,Wunderground v.1.15,2013-07-12 01:50:00,
2013-07-11 22:10:00,74.8,67.5,29.88,North,11,0.0,0.0,78,0.00,,,0.00,0,Wunderground v.1.15,2013-07-12 02:10:00,
2013-07-11 22:20:00,74.8,67.5,29.88,North,11,0.0,0.0,78,0.00,,,0.00,0,Wunderground v.1.15,2013-07-12 02:20:00,
2013-07-11 22:30:00,74.8,66.7,29.89,North,9,0.0,1.0,76,0.00,,,0.00,0,Wunderground v.1.15,2013-07-12 02:30:00,
2013-07-11 22:50:00,74.3,66.6,29.89,North,9,0.0,0.0,77,0.00,,,0.00,0,Wunderground v.1.15,2013-07-12 02:50:00,
2013-07-11 23:00:00,74.2,66.5,29.89,North,9,0.0,0.0,77,0.00,,,0.00,0,Wunderground v.1.15,2013-07-12 03:00:00,
2013-07-11 23:20:00,73.7,66.4,29.88,NNW,346,0.0,0.0,78,0.00,,,0.00,0,Wunderground v.1.15,2013-07-12 03:20:00,
2013-07-11 23:30:00,73.3,66.4,29.89,NNW,346,0.0,0.0,79,0.00,,,0.00,0,Wunderground v.1.15,2013-07-12 03:30:00,
2013-07-11 23:40:00,73.5,66.6,29.89,NNW,346,0.0,0.0,79,0.00,,,0.00,0,Wunderground v.1.15,2013-07-12 03:40:00,
2013-07-11 23:50:00,73.5,66.6,29.88,NNW,346,0.0,0.0,79,0.00,,,0.00,0,Wunderground v.1.15,2013-07-12 03:50:00,